Hourly Weather Roundup
Issued by NWS Central Illinois

Home | Current Version | Previous Version | Text Only | Print | Product List | Glossary On
Versions: 1 2 3 4 5 6 7 8 9 10 11 12 13 14 15 16 17 18 19 20 21 22 23 24 25 26 27 28 29 30 31 32 33 34 35 36 37 38 39 40 41 42 43 44 45 46 47 48 49 50
000
NZUS43 KILX 260710
HWRILX

Area Weather Roundup
National Weather Service Lincoln IL
200 AM CDT MON JUN 26 2017

NOTE:  "FAIR" indicates few or no clouds below 12,000 feet, with
       no sigificant weather and/or obstructions to visibility.


CITY           SKY/WX    TMP DP  RH WIND       PRES   REMARKS
Bloomington    CLEAR     53  48  83 SW6       30.16F
Champaign        N/A    N/A N/A N/A MISG      30.16F
Danville       MOCLDY    53  50  90 W3        30.13S
Decatur        PTCLDY    59  48  67 CALM      30.17F
Effingham      CLEAR     55  51  87 CALM      30.19S
Flora          CLEAR     55  51  85 SW3       30.19S
Galesburg      PTCLDY    49  47  93 CALM      30.17F
Jacksonville   PTCLDY    54  48  79 W5        30.18S
Lacon          MOCLDY    55  53  95 CALM      30.14S
Lawrenceville  CLEAR     59  54  83 NW3       30.17F
Litchfield     CLEAR     51  49  93 CALM      30.19S
$$


CITY           SKY/WX    TMP DP  RH WIND       PRES   REMARKS
Lincoln        PTCLDY    54  50  86 CALM      30.17S
Macomb         PTCLDY    52  48  87 W8        30.20S
Mattoon        PTCLDY    57  50  77 W3        30.16F
Mt Carmel AP   CLEAR     55  52  90 CALM      30.17S
Olney-Noble AP CLEAR     54  54 100 CALM      30.18F
Paris AP       CLEAR     51  50  97 SW3       30.17S
Peoria         CLEAR     54  51  90 CALM      30.16S
Pontiac        CLEAR     55  52  91 W6        30.15S
Rantoul        CLEAR     55  51  87 CALM      30.16S
Robinson       CLEAR     53  50  91 CALM      30.18S
Springfield    PTCLDY    54  49  83 SW5       30.17F
Taylorville    PTCLDY    53  49  87 CALM      30.18S
$$

...REGIONAL REPORTS...


CITY           SKY/WX    TMP DP  RH WIND       PRES   REMARKS
Chicago O`Hare PTCLDY    57  49  74 CALM      30.09F
Kankakee       CLEAR     54  48  82 W6        30.13F
Moline         CLEAR     54  48  80 SW3       30.15S
Mount Sterling PTCLDY    55  47  74 W6        30.18S
Mount Vernon   CLEAR     53  52  96 CALM      30.19S
Pittsfield     PTCLDY    57  50  79 W3        30.20F
Quincy         CLEAR     55  49  80 SW5       30.19S
Rockford       CLEAR     54  49  83 W5        30.11F
$$


CITY           SKY/WX    TMP DP  RH WIND       PRES   REMARKS
Burlington     CLEAR     55  47  74 W5        30.17F
Cedar Rapids   PTCLDY    49  45  86 W8        30.15S
Des Moines     CLEAR     56  51  84 CALM      30.18F
Kirksville     CLEAR     51  49  92 SW5       30.21F
Ottumwa        CLEAR     49  47  93 SW5       30.18F
St Louis       CLEAR     62  50  64 SW5       30.21S
$$


CITY           SKY/WX    TMP DP  RH WIND       PRES   REMARKS
Terre Haute    PTCLDY    56  50  80 CALM      30.16F
Evansville     PTCLDY    60  52  74 CALM      30.18S
Indianapolis   PTCLDY    57  49  74 W7        30.14F
Lafayette      CLEAR     54  52  93 W3        30.14S
Madison        CLEAR     54  51  90 CALM      30.08F
Milwaukee      MOCLDY    57  53  86 W7        30.07S
$$





USA.gov is the U.S. government's official web portal to all federal, state and local government web resources and services.